Home > Weather > Allschwil > Past weeks

Flag for Switzerland Weather for the Past 2 Weeks in Allschwil, Basel-Land, Switzerland

Now
38 °F

Light rain. Overcast.


Feels Like: 32 °F
Forecast: 38 / 45 °F
Wind: 10 mph from Southeast

Location: Bale-Mulhouse

Current Time: Feb 12, 2016 at 3:54:14 PM

Latest Report: Feb 12, 2016 at 3:00 PM


Visibility: 4 mi

Pressure: 29.41 "Hg

Humidity: 89%

Dew point: 36 °F

Location of AllschwilLocation

Historic Weather in Allschwil — Graph

°F

Allschwil Temperature Yesterday

Maximum temperature yesterday: 45 °F (at 2:00 PM)
Minimum temperature yesterday: 32 °F (at 2:00 AM)
Average temperature yesterday: 39 °F

High & Low Weather Summary for the Past Weeks

 TemperatureHumidityPressure
High57 °F (Feb 6, 4:00 PM)98% (Jan 28, 10:00 PM)30.52 "Hg (Jan 28, 10:00 PM)
Low32 °F (Feb 11, 2:00 AM)48% (Feb 11, 4:00 PM)29.26 "Hg (Feb 9, 4:00 PM)
Average45 °F80%30.06 "Hg
* Reported Jan 28 2:00 PM — Feb 12 2:00 PM, Allschwil, Weather by CustomWeather, © 2016

Note: Actual official high and low records may vary slightly from our data, if they occured in-between our weather recording intervals... More about our weather records

Advertising

Allschwil Weather History for the Previous 24 Hours

 ConditionsComfort  
Time TempWeatherWind HumidityBarometerVisibility
2:00 PM
Fri, Feb 12
41 °FLight rain. Overcast.14 mph77%29.41 "Hg9 mi
1:00 PM42 °FOvercast.14 mph69%29.47 "Hg9 mi
12:00 PM43 °FPartly sunny.14 mph69%29.50 "Hg9 mi
11:00 AM42 °FPartly sunny.12 mph75%29.57 "Hg9 mi
10:00 AM39 °FScattered clouds.12 mph81%29.60 "Hg7 mi
9:00 AM36 °FScattered clouds.3 mph91%29.64 "Hg7 mi
8:00 AM34 °FOvercast.6 mph95%29.67 "Hg6 mi
7:00 AM35 °FOvercast.3 mph95%29.72 "Hg5 mi
5:00 AM35 °FRain. Overcast.5 mph95%29.75 "Hg5 mi
4:00 AM35 °FDrizzle. Low clouds.2 mph94%29.77 "Hg4 mi
2:00 AM37 °FOvercast.6 mph88%29.77 "Hg31 mi
10:00 PM
Thu, Feb 11
37 °FOvercast.2 mph82%29.78 "Hg12 mi
9:00 PM37 °FOvercast.2 mph81%29.78 "Hg12 mi
8:00 PM37 °FOvercast.2 mph83%29.77 "Hg12 mi
7:00 PM39 °FOvercast.2 mph77%29.77 "Hg12 mi
6:00 PM40 °FOvercast.3 mph70%29.76 "Hg19 mi
5:00 PM43 °FOvercast.3 mph66%29.75 "Hg31 mi
4:00 PM44 °FOvercast.1 mph48%29.75 "Hg31 mi
3:00 PM45 °FOvercast.2 mph50%29.75 "Hg31 mi
Weather by CustomWeather, © 2016

See weather overviewHow to use our weather pages